Wind_Speed
48 49 45 43 42 40 42 38 37 35 33 34 34 33 34 33 33 32 32 29 27 29 27 24 24 26 26 27 31 29 31 25
46 44 41 42 43 39 40 38 34 31 27 32 33 33 34 34 34 32 29 26 27 29 26 24 23 26 26 26 30 25 25 26
40 40 41 39 37 39 38 37 34 30 25 32 33 33 34 34 34 31 28 25 29 29 25 24 25 27 27 28 31 33 25 27
38 38 46 41 37 35 36 34 34 33 27 30 32 34 35 32 32 25 26 27 29 28 24 25 26 26 29 32 28 34 32 29
45 46 44 44 40 36 36 39 36 33 30 28 32 35 34 32 31 27 28 27 27 27 24 25 27 28 28 33 29 35 33 31
48 46 42 35 37 39 39 36 38 33 33 28 35 35 33 32 30 29 26 28 27 25 24 26 27 28 30 29 33 27 32 32
46 44 40 39 38 40 37 41 36 32 30 29 36 37 29 30 29 28 27 29 26 24 25 27 29 29 30 29 31 28 29 35
33 34 33 34 37 38 37 37 31 29 31 34 39 36 28 30 29 26 28 27 27 25 26 29 29 30 31 35 31 30 30 38
32 37 29 32 30 31 34 33 28 31 33 38 38 31 29 28 29 28 25 26 25 26 29 29 30 29 33 33 31 34 31 39
30 31 32 36 40 37 33 33 35 37 36 36 34 29 29 28 28 26 26 23 25 28 30 29 32 33 31 35 34 33 31 39
27 31 33 34 36 35 34 36 34 33 32 33 29 26 28 28 29 30 23 22 26 29 30 32 32 30 32 29 33 37 41 39
24 26 30 33 32 31 32 30 28 26 28 27 25 26 26 26 24 22 21 23 26 28 29 30 30 27 30 30 34 38 40 37
20 24 26 27 30 32 31 28 25 25 24 23 26 28 25 24 21 22 22 23 25 27 27 26 24 28 24 27 34 35 40 42
21 24 25 26 29 33 27 27 25 25 23 23 28 26 23 21 23 22 23 22 23 24 23 19 27 22 26 28 25 29 42 37
18 21 24 25 27 29 27 28 26 25 27 28 30 25 26 24 23 22 24 21 22 22 20 20 14 17 27 29 28 34 39 42
16 17 20 24 24 28 28 28 28 29 32 32 32 29 29 26 22 22 24 21 19 21 18 19 10 11 15 22 28 36 41 37
18 17 19 23 24 27 30 31 32 34 34 35 34 33 33 30 22 23 23 21 18 17 17 14 15 9 9 18 22 31 33 28
17 15 17 20 23 27 32 35 37 38 38 38 36 35 34 29 23 25 24 22 20 17 17 17 16 15 15 13 17 24 28 31
17 17 17 19 23 27 31 35 39 40 40 39 39 40 39 33 30 28 26 23 23 21 19 19 19 18 19 19 20 22 24 27
Wind_Direction
246 250 250 250 245 245 246 241 236 240 235 247 256 261 267 273 277 277 275 268 274 278 272 266 267 274 272 266 253 249 231 230
241 243 249 246 245 240 238 237 239 243 240 250 255 262 264 264 272 273 266 266 273 276 271 269 272 277 267 264 247 246 239 221
239 241 244 242 238 233 231 235 240 237 235 249 253 258 262 268 272 262 261 267 273 274 269 272 278 274 263 264 248 235 227 222
233 233 236 237 231 231 232 239 243 241 239 247 253 259 267 274 277 255 256 260 272 271 271 278 281 269 261 261 250 245 224 229
226 229 235 240 241 240 243 242 242 245 248 251 256 260 266 268 262 250 255 261 264 264 271 279 278 264 264 258 257 248 243 232
223 222 225 231 235 237 236 240 244 247 250 245 254 261 266 264 252 243 252 259 258 262 273 277 275 268 261 262 259 245 230 227
230 231 235 236 235 233 237 240 244 245 248 247 257 261 261 256 245 244 250 251 255 259 269 274 275 270 262 253 255 262 242 226
231 231 236 239 245 250 247 240 241 240 246 247 254 258 251 247 242 244 245 250 256 261 266 269 270 267 262 259 250 247 240 226
228 232 231 235 237 240 247 252 245 243 243 244 252 250 243 243 242 242 245 250 259 263 266 270 270 267 268 253 259 245 238 232
224 228 228 234 233 223 241 242 237 241 245 249 250 237 242 239 236 242 242 251 260 267 270 270 268 276 259 259 251 236 243 230
216 223 230 233 232 237 228 235 243 245 243 245 239 237 231 235 235 235 239 255 263 267 273 271 268 263 270 254 243 237 237 226
227 228 227 229 226 225 232 238 241 240 240 235 236 232 233 237 234 238 250 261 268 273 273 272 276 265 265 240 223 224 226 219
230 231 227 220 224 224 221 228 235 232 230 229 228 225 233 229 236 244 255 264 273 280 276 281 270 273 245 222 224 225 215 224
225 225 223 211 213 222 223 223 225 226 224 226 228 231 230 228 240 247 254 263 278 280 281 284 287 250 224 222 227 219 218 224
217 223 225 221 213 223 219 222 220 228 223 225 232 240 234 229 236 247 253 262 279 279 293 282 280 231 219 227 231 221 220 221
230 228 227 225 218 224 225 224 222 224 230 233 235 240 245 226 236 246 250 258 275 277 289 283 281 219 208 218 224 222 215 221
244 232 228 226 221 222 228 228 226 228 233 239 244 249 250 224 231 245 251 254 261 271 272 269 257 232 190 206 212 212 213 223
250 241 236 228 224 224 229 230 230 232 238 242 242 253 238 218 227 242 245 248 250 257 261 255 248 242 229 216 198 205 209 215
247 245 243 239 229 226 229 233 234 236 240 242 243 253 245 222 224 238 241 244 246 247 250 253 249 242 236 233 227 218 219 213
Height
5704 5709 5712 5716 5721 5725 5726 5731 5736 5741 5745 5746 5748 5750 5749 5748 5748 5747 5746 5745 5746 5745 5745 5745 5745 5744 5745 5745 5747 5748 5751 5755
5694 5698 5702 5705 5710 5715 5718 5723 5728 5732 5738 5740 5741 5742 5741 5740 5738 5738 5738 5739 5739 5738 5738 5739 5739 5738 5738 5739 5740 5742 5745 5749
5684 5688 5693 5695 5700 5706 5710 5715 5720 5724 5731 5731 5733 5734 5733 5732 5732 5732 5731 5732 5731 5731 5733 5732 5731 5731 5732 5734 5735 5735 5739 5744
5674 5677 5681 5684 5691 5696 5702 5707 5711 5716 5721 5722 5724 5725 5724 5725 5725 5725 5725 5725 5725 5725 5726 5725 5724 5725 5727 5728 5730 5731 5733 5737
5660 5665 5671 5678 5684 5688 5693 5699 5703 5707 5711 5715 5715 5715 5716 5717 5717 5716 5716 5719 5719 5719 5719 5718 5718 5719 5721 5723 5724 5725 5726 5731
5646 5653 5661 5669 5676 5680 5685 5690 5694 5699 5702 5707 5705 5706 5708 5708 5708 5709 5710 5711 5712 5712 5712 5712 5712 5713 5714 5715 5718 5718 5721 5724
5641 5651 5657 5663 5664 5668 5675 5682 5687 5692 5693 5696 5695 5696 5700 5699 5701 5702 5704 5704 5705 5705 5705 5705 5706 5706 5706 5708 5710 5712 5714 5718
5636 5644 5648 5655 5661 5666 5669 5671 5680 5682 5684 5686 5686 5687 5690 5691 5694 5695 5697 5697 5697 5697 5698 5699 5699 5698 5699 5699 5701 5705 5707 5712
5631 5635 5642 5647 5653 5657 5661 5665 5671 5672 5674 5676 5677 5680 5681 5684 5687 5688 5689 5690 5690 5690 5691 5691 5690 5690 5691 5692 5693 5696 5700 5705
5622 5628 5633 5638 5643 5647 5653 5656 5659 5661 5665 5667 5668 5671 5673 5678 5680 5681 5682 5683 5683 5683 5683 5682 5682 5682 5681 5682 5684 5687 5692 5696
5616 5621 5626 5631 5635 5641 5642 5646 5650 5655 5656 5657 5660 5664 5667 5669 5671 5674 5675 5674 5676 5676 5675 5674 5673 5672 5671 5671 5674 5679 5684 5689
5610 5614 5619 5624 5627 5631 5636 5641 5644 5647 5648 5651 5654 5658 5660 5661 5664 5665 5667 5667 5668 5668 5667 5665 5663 5662 5662 5663 5667 5672 5677 5682
5604 5608 5611 5617 5620 5624 5627 5633 5637 5640 5642 5646 5649 5651 5653 5656 5658 5659 5660 5661 5661 5660 5659 5656 5654 5653 5653 5656 5660 5665 5671 5677
5599 5602 5605 5611 5615 5617 5621 5625 5630 5632 5636 5639 5642 5645 5647 5651 5652 5654 5655 5655 5654 5653 5651 5647 5644 5643 5647 5651 5654 5659 5666 5671
5594 5596 5599 5603 5608 5611 5615 5619 5622 5627 5630 5633 5636 5639 5641 5645 5647 5648 5649 5649 5649 5647 5645 5644 5639 5638 5641 5646 5650 5655 5659 5664
5590 5591 5594 5597 5601 5605 5608 5612 5616 5621 5625 5627 5630 5633 5635 5638 5641 5642 5644 5644 5644 5643 5641 5641 5637 5636 5638 5641 5644 5648 5653 5658
5585 5588 5590 5592 5595 5598 5601 5606 5610 5614 5618 5620 5623 5626 5629 5632 5634 5636 5638 5639 5639 5638 5638 5638 5636 5635 5636 5638 5641 5644 5649 5652
5580 5583 5584 5587 5590 5593 5596 5599 5603 5607 5610 5613 5615 5619 5621 5624 5626 5629 5632 5633 5634 5635 5635 5636 5635 5634 5635 5636 5638 5641 5644 5648
5575 5577 5579 5581 5584 5587 5589 5592 5595 5599 5602 5606 5608 5612 5613 5617 5617 5620 5624 5626 5628 5630 5631 5632 5633 5633 5634 5636 5637 5639 5641 5644